Observations for Trim Market St
| Time | AQI | Temp °C | Hum % | Pres Pa | CO μg/m³ | H₂S μg/m³ | NO μg/m³ | NO₂ μg/m³ | O₃ μg/m³ | SO₂ μg/m³ | PM1 μg/m³ | PM2.5 μg/m³ | PM10 μg/m³ |
|---|---|---|---|---|---|---|---|---|---|---|---|---|---|
| Sunday 16 August 2026 | |||||||||||||
| 07:24 | 2 | 14.9 | 72 | 54,452 | 0.32 | 0 | 2.43 | 9.61 | 53.07 | 0 | 3.56 | 4.88 | 7.53 |
| 07:17 | 2 | 14.9 | 72 | 54,663 | 0.32 | 0 | 2.3 | 7.64 | 45 | 0 | 3.56 | 4.89 | 7.53 |
| 07:16 | 2 | 14.9 | 72 | 54,675 | 0.33 | 0 | 2.3 | 8.36 | 47.96 | 0 | 2.14 | 4.4 | 6.92 |
| 07:15 | 2 | 14.9 | 72 | 54,696 | 0.32 | 0 | 2.16 | 8.34 | 51.8 | 0 | 3.56 | 4.89 | 7.53 |
| 07:14 | 2 | 14.9 | 72 | 54,733 | 0.3 | 0 | 2.26 | 8.49 | 48.8 | 0 | 3.56 | 4.89 | 7.53 |
| 07:13 | 2 | 14.9 | 72 | 54,778 | 0.32 | 0 | 2.26 | 10.69 | 58.2 | 0 | 3.56 | 4.9 | 8.15 |
| 07:12 | 2 | 14.9 | 72 | 54,814 | 0.31 | 0 | 2.42 | 10.68 | 49.49 | 0 | 3.56 | 5.38 | 9.38 |
| 07:11 | 2 | 14.9 | 72 | 54,854 | 0.3 | 0 | 2.34 | 8.92 | 53.09 | 0 | 2.85 | 5.38 | 8.15 |
| 07:10 | 2 | 14.9 | 72 | 54,882 | 0.31 | 0 | 2.5 | 8.15 | 48.39 | 0 | 2.85 | 4.41 | 8.15 |
| 07:09 | 2 | 14.9 | 72 | 54,891 | 0.32 | 0 | 2.54 | 10.68 | 55.33 | 0 | 2.85 | 5.86 | 8.76 |
| 07:08 | 2 | 14.8 | 72 | 54,920 | 0.32 | 0 | 2.8 | 9.09 | 54.26 | 0 | 3.56 | 4.9 | 7.53 |
| 07:07 | 2 | 14.9 | 72 | 54,946 | 0.31 | 0 | 3.01 | 10.12 | 56.4 | 0 | 2.14 | 4.42 | 8.15 |
| 07:06 | 2 | 14.8 | 72 | 54,998 | 0.32 | 0 | 3.19 | 9.51 | 48.19 | 0 | 2.85 | 4.42 | 6.91 |
| 07:05 | 2 | 14.8 | 72 | 55,073 | 0.32 | 0 | 3.24 | 9.37 | 45.51 | 0 | 2.85 | 4.42 | 6.91 |
| 07:04 | 2 | 14.8 | 72 | 55,162 | 0.32 | 0 | 3.24 | 8.29 | 57.6 | 0 | 3.56 | 4.91 | 7.53 |
| 07:02 | 2 | 14.8 | 72 | 55,275 | 0.32 | 0 | 3.19 | 9.78 | 43.81 | 0 | 3.56 | 4.92 | 7.53 |
| 06:52 | 2 | 14.7 | 71 | 55,775 | 0.3 | 0 | 2.8 | 6.71 | 46.83 | 0 | 2.85 | 3.97 | 6.91 |
| 06:50 | 2 | 14.7 | 71 | 55,808 | 0.29 | 0 | 2.46 | 6.87 | 45.19 | 0 | 2.85 | 3.97 | 6.29 |
| 06:49 | 2 | 14.7 | 71 | 55,825 | 0.29 | 0 | 3.15 | 6.03 | 52.33 | 0 | 2.85 | 4.94 | 7.53 |
| 06:47 | 2 | 14.7 | 71 | 55,848 | 0.3 | 0 | 3.18 | 6.18 | 48.91 | 0 | 3.56 | 4.46 | 7.53 |